Miscellaneous Local Product
Issued by NWS North Platte, NE

Home | Current Version | Previous Version | Graphics & Text | Print | Product List | Glossary On
Versions: 1 2 3 4 5 6 7 8 9 10 11 12 13 14 15 16 17 18 19 20 21 22 23 24 25 26 27 28 29 30 31 32 33 34 35 36 37 38 39 40 41 42 43 44 45 46 47 48 49 50
061
AXUS43 KLBF 190010
MISLBF


WESTERN AND NORTH CENTRAL NEBRASKA HOURLY WEATHER ROUNDUP
NATIONAL WEATHER SERVICE NORTH PLATTE NE
600 PM CST SAT FEB 18 2017

NOTE: "FAIR" INDICATES FEW OR NO CLOUDS BELOW 12,000 FEET WITH NO
SIGNIFICANT WEATHER AND/OR OBSTRUCTIONS TO VISIBILITY.

NOTE: STATIONS NOT REPORTING VARIABLES SUCH AS SKY/WEATHER OR
PRESSURE ARE PROVIDED BY RAWS AND APRS NETWORKS AND ARE NOT UNDER
NATIONAL WEATHER SERVICE QUALITY CONTROL.

...OBSERVATIONS IN AND NEAR THE EASTERN PANHANDLE OF NEBRASKA...

CITY           SKY/WX    TMP DP  RH WIND       PRES   REMARKS
PINE RIDGE     CLEAR     55  31  39 S13       29.64R
CHADRON        CLEAR     60  32  34 S13       29.61S
ALLIANCE       CLEAR     56  27  32 SE13      29.66S
SIDNEY         CLOUDY    57  25  29 SE13      29.67F
$$

...OBSERVATIONS IN NORTHERN NEBRASKA AND FAR SOUTHERN SOUTH DAKOTA...

CITY           SKY/WX    TMP DP  RH WIND       PRES   REMARKS
WINNER         FAIR      59  30  33 S14       29.69S
VALENTINE      CLEAR     56  28  34 S9        29.69S
THEDFORD       PTCLDY    57  32  38 SE7       29.73S
AINSWORTH      PTCLDY    55  31  40 SE9       29.72S
O`NEILL        PTCLDY    56  30  37 SE7       29.76S
ORD            PTCLDY    57  28  33 S6        29.75S
BROKEN BOW     MOCLDY    57  35  43 SE6       29.75S
VALENTINE NWR    N/A     61  27  27 S12         N/A
HALSEY           N/A     60  28  29 S6G13       N/A
CHAMBERS         N/A     51  28  40 CALM        N/A
EWING            N/A     51  38  62 CALM        N/A
$$

...OBSERVATIONS IN SOUTHWEST NEBRASKA AND FAR NORTHEAST COLORADO...

CITY           SKY/WX    TMP DP  RH WIND       PRES   REMARKS
HOLYOKE        FAIR      61  28  29 SE10      29.70S
IMPERIAL       CLEAR     56  30  37 SE12      29.72R
OGALLALA       PTCLDY    59  30  34 SE9       29.71S
NORTH PLATTE   CLOUDY    58  30  34 SE6       29.73S
MCCOOK         CLEAR     58  35  42 SE7       29.73S
LEXINGTON      CLOUDY    61  33  35 SE6       29.75S
STAPLETON        N/A     58  33  39 CALM        N/A
GOTHENBURG       N/A     61  32  34 SE5         N/A
CALLAWAY         N/A     54  34  46 SE9         N/A
$$

...OBSERVATIONS IN CENTRAL LINCOLN COUNTY AREA...

CITY           SKY/WX    TMP DP  RH WIND       PRES   REMARKS
N.P. AIRPORT   CLOUDY    58  30  34 SE6       29.73S
N.P. DOWNTOWN    N/A     59  35  40 CALM        N/A
N.P. SOUTHEAST   N/A     58  33  39 SE3         N/A
N.P. HILLCREST   N/A     56  33  42 SE6         N/A
$$

...SOME OBSERVATIONS FROM AROUND THE REGION...

CITY           SKY/WX    TMP DP  RH WIND       PRES   REMARKS
LARAMIE        CLOUDY    49  22  34 SE5       29.71R
CHEYENNE       CLOUDY    53  20  27 SE14      29.68S
DENVER         CLOUDY    60  22  23 S20G28    29.64R
AKRON          CLOUDY    58  20  22 SE16      29.67F
SCOTTSBLUFF    CLOUDY    57  26  30 SE8       29.64F
RAPID CITY     CLEAR     64  30  27 W5        29.58R
BISMARCK       CLOUDY    38  32  79 E13       29.69S WCI  30
PIERRE         CLEAR     53  36  52 E12       29.64S
SIOUX FALLS    PTCLDY    50  41  71 S6        29.78S
OMAHA          MOCLDY    59  32  36 E7        29.78R
GRAND ISLAND   CLOUDY    57  33  40 SE6       29.76S
KANSAS CITY    PTCLDY    64  42  44 SW3       29.79R
WICHITA        PTCLDY    63  46  54 S9        29.77R
OKLAHOMA CITY  MOCLDY    63  50  62 SE10      29.79R
DALLAS         PTCLDY    76  48  37 SE6       29.73R
AMARILLO       CLEAR     60  37  42 SE13      29.76S
DODGE CITY     PTCLDY    64  35  34 S10       29.75S
HAYS           CLOUDY    66  38  35 SE9       29.73R
GOODLAND       CLEAR     56  28  34 SE7       29.71F
$$




USA.gov is the U.S. government's official web portal to all federal, state and local government web resources and services.